[Date Prev][Date Next][Thread Prev][Thread Next][Date Index][Thread Index]

[jamsat-news:1556] jas2info #237



========================   最新情報   ==============================

        Last updated :Wed.01AUG2001  21:50(JST)   #237
        
====================================================================
   
  1)アマチュア通信衛星情報、FOシリーズの軌道要素、テレメトリ、QSOの
   状況等をまとめてみました.
   
   FO−29の2001年8月1日(水)の20:44(JST)のパスでは
  JARLのホームページのとうりアナログ運用でした。 今週の観測した
  テレメトリーと最終の分析結果を掲載しておきます.

AS24478C1  01AUG2001
20:44-21:02(JST)
FREQ.435.805-.786MHz

HI HI AE C7 88 55 00 D4 71 36 08 41 70 28 58 64 9C 9A B0 6E 9F 98 8F A3 9F 
HI HI AE C7 88 55 00 D4 71 36 09 41 7E 2A 51 64 9C 9A B0 6D 9F 98 8F A3 9F 
HI HI AE C7 88 55 00 D4 71 36 09 41 8A 2F 4E 65 9C 9A B0 6E 9F 98 8F A3 9F 
HI HI AE C7 88 55 00 D4 71 36 09 41 95 37 47 65 9B 99 AA 7F 9F 98 9F A3 9F 
HI HI AE C7 88 55 00 D4 71 36 09 41 9D 40 43 67 99 97 A4 82 9F 98 9F A3 9F 
HI HI AE C7 88 55 00 D5 71 36 09 41 A2 49 45 66 98 95 A4 6B 9F 98 9F A3 9F 
HI HI AE C7 88 55 00 D4 71 36 09 41 A4 56 44 66 97 94 A4 5F 9F 98 9F A3 9F 
HI HI AE C7 88 55 00 D4 71 36 09 41 A3 5F 47 65 96 94 A8 78 9F 98 9F A3 9F 
HI HI AE C7 88 55 00 D4 71 36 09 41 A0 68 4C 63 97 95 AD 6B 9F 98 9F A3 9F 
HI HI AE C7 88 55 00 D4 71 36 09 41 9C 6E 4E 63 98 95 B0 7A 9F 99 9F A3 9F 
HI HI AE C7 88 55 00 D4 71 36 09 41 96 72 54 63 99 97 B0 5E 9F 99 9F A3 9F 
HI HI AE C7 88 55 00 D4 71 36 09 41 8F 74 58 63 9A 98 B0 77 9F 99 9F A3 9F 
HI HI AE C7 88 55 00 D4 71 36 09 41 85 72 5B 63 9B 99 B0 7A 9F 99 9F A3 9F 
HI HI AE C7 88 55 00 D4 71 36 09 41 82 70 60 63 9B 99 B0 66 9F 99 9F A3 9F 
HI HI AE C7 88 55 00 D4 71 36 09 41 7C 6B 62 63 9B 99 B0 63 9F 99 9F A3 9F 
HI HI AE C7 88 55 00 D4 71 36 09 41 79 65 68 64 9C 9A B0 61 9F 99 9F A3 9F 
HI HI AE C7 88 55 00 D4 71 36 09 41 77 5F 6A 64 9C 99 B0 83 9F 99 9F A3 9E 
HI HI AE C7 88 55 00 D4 71 36 09 41 78 59 6C 64 9C 9A B0 6E 9F 99 8F A3 9E 
HI HI AE C7 88 55 00 D4 71 36 09 41 7A 54 6C 64 9C 9A B0 83 9F 99 9F A3 9E 
HI HI AE C7 88 55 00 D4 71 36 09 41 7E 52 6B 64 9D 9A B0 77 9F 99 9F A2 9E 
HI HI AE C7 88 55 00 D4 71 36 09 41 83 51 6C 64 9D 9A B0 6B 9E 98 9F A2 9E 
HI HI AE C7 88 55 00 D4 71 36 09 41 89 53 6B 64 9D 9A B0 70 9E 98 9F A2 9E 
HI HI AE C7 88 55 00 D4 71 36 09 41 8F 58 66 64 9C 9A B9 7C 9E 98 9F A2 9E 
HI HI AE C7 88 55 00 D4 71 36 09 41 93 60 63 64 9C 9A B0 7E 9E 98 9F A2 9E
 
AS24472C1  01AUG2001
9:31-10:46(JST)
FREQ.435.803-.789MHz

HI HI AE C7 88 55 00 D4 2E CC 09 59 76 A0 7C 64 9B 99 B0 6C A2 A0 A1 A2 9F 
HI HI AE C7 88 55 00 D4 2E CC 09 59 74 A0 81 64 9C 99 B0 76 A3 9F A1 A2 9F 
HI HI AE C7 88 55 00 D4 2E CC 09 59 72 A0 81 64 9C 9A B0 85 A2 9F A1 A2 9F 
HI HI AE C7 88 55 00 D4 2E CC 09 59 70 A0 81 64 9C 9A B0 78 A2 9F A1 A2 9F 
HI HI AE C7 88 55 00 D4 2E CC 09 59 6D A0 79 64 9C 9A B0 75 A2 9F A1 A2 9F 
HI HI AE C7 88 55 00 D4 2E CC 09 59 67 9F 72 64 9C 9A B0 7E A2 9F A1 A2 9F 
HI HI AE C7 88 55 00 D4 2E CC 09 59 61 9F 6F 64 9C 9A B0 4D A2 9F A1 A2 9F 
HI HI AE C7 88 55 00 D4 2E CC 09 59 59 9D 6F 64 9C 9A B0 65 A2 9F A1 A1 9F 
HI HI AE C7 88 55 00 D4 2E CC 09 59 50 97 6B 64 9C 99 B0 77 A2 9F A1 A1 9F
HI HI AE C7 88 55 00 D4 2E CC 09 59 47 92 68 64 9C 99 B1 7D A2 9F A1 A1 9F 
HI HI AE C7 88 55 00 D4 2E CC 09 59 3F 89 64 64 9C 9A B0 6E A2 9F A1 A1 9F 
HI HI AE C7 88 55 00 D4 2E CC 09 59 38 7E 5E 64 9C 9A B0 69 A2 9F A0 A1 9F 
HI HI AE C7 88 55 00 D4 EC 7F 09 4D 33 72 5F 64 9C 9A B0 6F A2 9F A1 A1 9F 
HI HI AE C7 88 55 00 D4 EC 7F 09 4D 31 65 60 64 9C 9A B0 59 A2 9F A0 A1 9F 
HI HI AE C7 88 55 00 D4 EC 7F 09 4D 34 51 63 64 9C 99 B0 78 A2 9F A0 A1 9F 
HI HI AE C7 88 55 00 D4 EC 7F 09 4D 37 4A 68 64 9C 9A B0 7D A2 9F A0 A1 9F 
HI HI AE C7 88 55 00 D4 EC 7F 09 4D 3E 3E 6C 64 9C 9A B0 5E A2 9F A0 A1 9F 
HI HI AE C7 88 55 00 D4 EC 7F 09 4D 46 34 68 64 9C 9A B0 78 A2 9F A0 A1 9F 
HI HI AE C7 88 55 00 D4 EC 7F 09 4D 51 2C 6D 64 9C 9A B0 76 A2 9F A0 A1 9F 
HI HI AE C7 88 55 00 D4 EC 7F 09 4D 5D 27 79 64 9C 9A B0 83 A2 6F A0 A1 9F 
HI HI AE C7 88 55 00 D4 EC 7F 09 4D 68 23 7E 64 9C 9A B0 74 A2 9F A0 A1 9F 
HI HI AE C7 88 55 00 D4 EC 7F 09 4D 73 23 7E 64 9C 9A B0 70 A2 9F A0 A1 9F 

AS24464C1   31JUL2001
19:54-20:11(JST)
FREQ.435.803-.789NHz

HI HI AE C7 88 55 00 D4 FC F9 09 45 5F 27 5F 64 9C 9A B0 A8 9E 99 A0 A2 9E 
HI HI AE C7 88 55 00 D4 FC F9 09 45 69 26 5A 64 9C 9A B0 78 9E 99 A0 A3 9E 
HI HI AE C7 88 55 00 D4 FC F9 09 45 71 26 53 64 9C 9A B0 74 9E 99 A0 A3 9E 
HI HI AE C7 88 55 00 D4 FC F9 09 45 79 28 54 64 9C 9A B0 80 9E 99 9F A3 9E 
HI HI AE C7 88 55 00 D4 FC F9 09 45 7F 2B 54 64 9C 9A B0 72 9E 99 9F A2 9E 
HI HI AE C7 88 55 00 D4 FC F9 09 45 83 2E 4D 64 9C 99 B0 79 9E 99 9F A2 9E 
HI HI AE C7 88 55 00 D4 FC F9 09 45 86 31 4C 64 9C 9A B0 59 9E 99 9F A2 9E 
HI HI AE C7 88 55 00 D4 FC F9 09 45 87 34 4C 64 9C 99 B0 7E 9E 99 9F A2 9E 
HI HI AE C7 88 55 00 D4 FC F9 09 45 87 36 4E 64 9C 99 B0 71 9F 99 9F A2 9E 
HI HI AE C7 88 55 00 D4 FC F9 09 45 86 38 4D 64 9C 99 B0 75 9F 99 9F A2 9E 
HI HI AE C7 88 55 00 D4 FC F9 09 45 84 38 50 64 9C 99 B0 7A 9F 99 9F A2 9E 
HI HI AE C7 78 55 00 D4 FC F9 09 45 82 39 53 64 9C 9A B0 7C 9F 99 9F A2 9E 
HI HI AE C7 88 55 00 D4 FC F9 09 45 81 39 55 64 9C 9A B0 8B 9F 99 9F A2 9E 
HI HI AE C7 88 55 00 D4 FC F9 09 45 80 39 5F 64 9C 9A B0 7B 9F 99 9F A2 9E 
HI HI AE C7 88 55 00 D4 FC F9 09 45 88 3E 5E 64 9C 9A B0 B8 9F 99 9F A2 9E 
HI HI AE C7 88 55 00 D4 FC F9 09 45 89 3B 5D 64 9C 9A B0 8A 9F 99 9F A2 9E 
HI HI AE C7 88 55 00 D4 FC F9 09 45 82 3D 5B 64 9C 9A B0 85 9F 99 9F A2 9E 
HI HI AE C7 88 55 00 D4 FC F9 09 45 84 40 5B 64 9C 9A B0 79 9F 9A 9F A2 9E 
HI HI AE C7 88 55 00 D4 FC F9 09 45 87 45 65 64 9C 9A B0 77 9E 9A 9F A1 9E 
HI HI AE C7 88 55 00 D4 FC F9 09 45 8A 4B 66 64 9C 9A B0 78 9E 9A 9F A2 9E 
HI HI AE C7 88 55 00 D4 FC F9 09 45 8D 53 6A 64 9C 9A B0 83 9E 9A 9F A1 9E 
HI HI AE C7 88 55 00 D4 FC F9 09 45 90 5C 6C 64 9C 9A B0 7A 9E 9A 9F A1 9E 
HI HI AE C7 88 55 00 D4 FC F9 09 45 92 66 6C 64 9C 9A B0 79 9E 9A 9F A1 9E
 
AS24450C1   30JUL2001
19:05-19:18(JST)
FREQ.435.802-.789MHz

HI HI AE C7 88 55 00 D4 00 00 09 00 83    54 64 9B 9C B0 8E A3 9F 9F A2 A1 
HI HI AE C7 88 55 00 D4 00 00 09 00 80 5D 54 64 9B 9A B0 88 A3 9F 9F A2 A1 
HI HI AE C7 88 55 00 D4 00 0O 09 00 65    53 64 9C 9A B0 87 A3 9F 9F A2 A1 
HI HI AE C7 88 55 00 D4 00 00 09 00 6E 2A 53 64 9C 9A B0 86 A3 9F 9F A2 A1 
HI HI AE C7 88 55 00 D4 00 00 09 00 77 2D 51 64 9C 99 B0 76 A3 9F 9F A2 A1 
HI HI AE C7 88 55 00 D4 6B DF 09 50 80 34 51 64 9C 99 AF 6E A3 9F 9F A2 A1 
HI HI AE C7 88 55 00 D4 6B DF 09 50 98    57 64 9C 9A B0 66 A3 9F 9F A2 A1 
HI HI AE C7 88 55 00 D4 6B DF 09 59 9F 47 59 64 9C 9A B0 65 A3 9E 9F A2 A1 
HI HI AE C7 88 55 00 D4 6B DF 09 50 94 53 60 64 9C 99 B0 84 A3 9E 9F A2 A1 
HI HI AE C7 88 55 00 D4 6B DF 09 50 97 5F 64 64 9C 9A B0 79 A3 9E 9F A2 A1 
HI HI AE C7 88 55 00 D4 6B DF 09 50 99 6B 69 64 9C 9A B0 78 A3 9E 9F A2 A1 
HI HI AE C7 88 55 00 D4 6B DF 09 50 98 76 6B 64 9C 9A B0 8E A3 9E 9F A2 A1 
HI HI AE C7 88 55 00 D4 6B DF 09 50 95 80 6C 64 9C 99 B0 87 A3 9E 9F A2 A1 
HI HI AE C7 88 55 00 D4 6B DF 09 50 90 88 6B 64 9C 9A B0 7C A3 9E 9F A2 A1 
HI HI AE C7 88 55 00 D4 6B DF 09 50 89 8E 6B 64 9C 9A B0 89 A3 9E 9F A2 A1 
HI HI AE C7 88 55 00 D4 6B DF 09 50 80 92 6C 64 9C 9A B0 89 A3 9E 9F A2 A1 
HI HI AE C7 88 55 00 D4 6B DF 09 50 75 83 6C 64 9C 9A B0 7D A3 9D 9F A2 A1 
HI HI AE C7 88 55 00 D4 6B DF 09 50 6A 91 6A 64 9C 9A B0 7C A3 9D 9F A2 A1 

AS24445C1   30JUL2001
9:45-9:55(JST)
FREQ.435.791-.789MHz
                                        
HI HI AE C7 88 55 00 D4 71 18 09 44     5 57 64 9C 9A B0 63 A3 A0 A3 A3 A0
HI HI AE C7 88 55 00 D4 71 18 09 44 A4 70 7B 64 9C 9A B0 B4 A2 A0 A3 A3 A0 
HI HI AE C7 88 55 00 D4 71 18 09 44 A5 71 7C 63 9C 99 B0 90 A2 9F A3 A3 A1 
HI HI AE C7 88 55 00 D4 71 18 09 44 A6 71 7C 64 9C 9A B0 6B A2 9F A3 A3 A1 
HI HI AE C7 88 55 00 D4 71 18 09 44 A7 71 7C 64 9C 9A B0 5F A2 9F A3 A3 A0 
HI HI AE C7 88 55 00 D4 71 18 09 44 A7 70 7C 64 9C 99 B0 69 A2 9F A3 A3 A0 
HI HI AE C7 88 55 00 D4 71 18 09 44 
	
 ------------------------ FO-29の軌道要素 ------------------------------        
 
  ■ 軌道要素1:「jamsat−keps:1022」より         
          SB KEPS @ AMSAT  $ORB01207.N
          2Line Orbital Elements 01207.AMSAT

HR AMSAT ORBITAL ELEMENTS FOR AMATEUR SATELLITES IN NASA FORMAT
FROM WA5QGD FORT WORTH,TX July 26, 2001
SEND SUBSCRIBE/UNSUBSCRIBE TO majordomo@amsat.org ONLY
BID: ORB01207.N

 DECODE 2-LINE ELSETS WITH THE FOLLOWING KEY:
 1 AAAAAU 00  0  0 BBBBB.BBBBBBBB  .CCCCCCCC  00000-0  00000-0 0  DDDZ
 2 AAAAA EEE.EEEE FFF.FFFF GGGGGGG HHH.HHHH III.IIII JJ.JJJJJJJJKKKKKZ
 KEY: A-CATALOGNUM B-EPOCHTIME C-DECAY D-ELSETNUM E-INCLINATION F-RAAN
 G-ECCENTRICITY H-ARGPERIGEE I-MNANOM J-MNMOTION K-ORBITNUM Z-CHECKSUM

O-29
1 24278U 96046B   01206.65890359 -.00000004  00000-0  35053-4 0 04396
2 24278 098.5341 066.6445 0350172 262.1542 093.9719 13.52777603243846

 ■ 軌道要素2:「jamsat−keps:1023」より
        SB KEPS @ AMSAT  $ORB01207.O
        Orbital Elements  01207.OSCAR

HR AMSAT ORBITAL ELEMENTS FOR OSCAR SATELLITES
FROM WA5QGD FORT WORTH,TX July 26, 2001
SEND SUBSCRIBE/UNSUBSCRIBE TO majordomo@amsat.org ONLY
BID: ORB01207.O
TO ALL RADIO AMATEURS BT
 
Satellite: FO-29
Catalog number: 24278
Epoch time:      01206.65890359
Element set:    0439
Inclination:      098.5341 deg
RA of node:       066.6445 deg
Eccentricity:    0.0350172
Arg of perigee:   262.1542 deg
Mean anomaly:     093.9719 deg
Mean motion:   13.52777603 rev/day
Decay rate:       -4.0e-08 rev/day^2
Epoch rev:           24384
Checksum:              322

-------------------  FO-29(JAS-2)のテレメトリに関する情報  ---------------------- 
 
2)上記8月1日(水)のテレメトリの最終行を分析しておきます.

AS24478C1  01AUG2001
20:44-21:02(JST)
FREQ.435.805-.786MHz

HI HI AE C7 88 55 00 D4 71 36 09 41 93 60 63 64 9C 9A B0 7E 9E 98 9F A2 9E 

